Theta_e
320 321 322 322 322 323 324 324 325 325 326 326 326 325 325 325 323 318 308 315 318 328 322 313 313 311 313 310 308 305 301 297 298 298 300 304 303 305 306 305 306 306 304 303 306
320 321 321 321 322 322 323 324 324 325 326 325 324 324 324 324 315 309 321 326 331 328 311 309 307 308 308 308 308 304 300 297 300 302 302 303 303 304 304 304 304 303 304 304 306
321 321 321 321 321 321 322 324 324 325 326 325 324 324 324 322 310 307 325 328 330 322 312 311 310 308 304 307 305 302 299 299 300 303 304 303 303 304 303 301 303 302 301 302 303
321 321 320 320 320 321 322 323 324 325 325 326 324 324 322 315 301 310 326 328 329 315 312 310 308 304 302 301 305 300 301 301 303 304 303 302 303 302 302 302 301 301 301 301 301
321 321 320 320 320 320 321 323 324 325 325 325 324 323 313 307 309 320 325 326 317 312 309 307 304 304 300 301 302 301 302 302 304 303 302 301 301 301 299 299 300 300 299 299 299
320 320 320 320 320 320 321 322 323 324 325 325 323 321 309 304 317 320 315 312 311 311 308 308 305 306 302 301 301 301 300 301 302 301 301 300 299 301 297 300 299 299 298 297 297
320 320 320 320 321 321 321 322 323 323 324 323 321 316 308 309 320 319 313 311 311 310 307 308 308 305 305 300 302 300 298 301 300 299 299 300 297 297 298 299 297 296 296 296 296
320 319 319 320 320 320 320 321 321 321 322 322 321 312 307 308 320 315 313 311 311 311 309 310 309 306 304 302 300 298 298 296 298 298 298 299 297 296 297 298 296 295 295 295 295
319 318 319 319 319 319 320 321 320 321 321 321 314 309 306 312 309 314 312 309 308 308 308 307 307 303 302 299 297 296 295 293 295 298 298 298 296 296 296 297 295 295 294 294 294
318 318 319 319 319 319 319 321 322 317 317 317 313 306 306 302 305 307 309 309 306 306 305 304 303 299 297 297 292 295 293 293 294 297 297 296 297 295 295 295 294 294 293 293 293
319 319 319 319 320 320 320 319 312 309 311 307 307 306 303 304 306 304 307 305 304 303 298 299 297 294 298 299 298 296 294 294 294 295 296 297 297 298 294 294 294 293 293 292 292
319 319 320 320 320 320 319 313 311 310 305 310 309 306 304 305 299 302 306 302 300 296 297 295 293 300 297 296 295 294 293 294 294 294 294 296 295 298 293 293 294 293 292 292 292
319 319 319 319 319 319 315 314 313 311 305 306 308 308 306 303 301 300 304 301 297 294 295 295 297 297 294 292 292 293 292 293 293 293 294 293 293 293 290 291 291 292 293 293 293
320 319 319 319 314 316 312 318 318 311 298 299 302 307 302 304 299 303 305 301 296 294 294 294 296 293 292 292 293 291 294 293 291 291 289 291 289 292 290 289 289 290 291 292 291
319 319 319 319 315 311 313 319 318 310 285 299 299 303 302 303 300 297 302 300 295 294 295 294 292 293 292 293 294 294 294 293 292 291 290 289 288 293 289 288 289 290 291 292 292
319 319 318 316 317 316 313 313 310 294 285 294 296 296 297 296 295 296 297 300 299 295 294 296 296 296 296 293 295 293 292 290 290 290 284 290 289 291 288 290 290 291 291 291 290
318 318 316 319 311 311 313 311 293 286 298 292 293 295 297 292 291 293 292 293 294 290 291 294 292 294 294 292 292 292 291 286 284 283 283 285 285 292 292 291 291 290 290 291 290
317 317 316 319 317 311 312 301 284 294 295 293 292 294 294 292 292 291 291 291 296 294 292 290 288 291 294 296 292 290 293 288 281 281 284 284 283 290 291 291 291 293 292 291 289
316 314 315 318 315 313 305 290 290 295 299 293 291 290 291 291 293 291 292 293 295 295 292 289 290 292 292 293 295 289 287 292 283 280 284 287 288 292 289 288 289 290 290 289 289
313 309 310 319 315 309 300 291 294 300 300 297 291 294 290 290 290 291 290 295 293 296 298 293 289 289 290 294 293 291 294 286 287 281 280 282 283 288 286 288 287 287 288 289 289
312 301 311 319 313 303 292 292 297 302 300 295 295 294 293 290 292 290 292 294 296 294 297 293 291 288 289 288 290 288 288 288 290 287 283 281 284 291 291 291 288 289 290 290 289
307 294 314 317 299 300 294 296 299 299 302 300 297 297 293 291 289 290 291 295 296 296 291 296 291 286 287 290 290 293 291 290 287 281 283 282 286 290 291 292 292 291 291 292 291
300 299 309 312 294 295 298 298 299 298 298 298 297 298 298 292 289 291 293 294 295 295 294 294 289 285 285 287 288 287 289 291 290 288 284 284 287 290 289 290 292 291 291 291 291
302 293 299 299 301 298 295 295 295 301 298 299 299 298 292 293 293 294 291 292 294 295 298 297 292 289 287 290 291 286 288 289 289 287 287 286 288 287 289 290 290 291 292 291 290
301 295 299 290 293 293 298 297 294 294 298 299 295 296 296 291 292 291 295 290 292 294 294 294 288 291 293 288 290 289 288 288 287 290 287 290 288 290 292 291 292 293 292 291 290
296 293 292 294 296 295 294 294 294 296 294 294 294 296 296 293 294 291 294 292 292 290 290 291 288 290 287 286 285 284 289 289 289 290 290 290 289 295 294 293 292 291 290 290 290
292 293 294 294 293 292 292 293 294 297 296 298 296 295 293 295 297 291 291 293 292 290 288 288 288 284 283 286 281 280 285 287 289 291 291 286 291 290 288 290 291 292 290 290 290
Wind_Speed
3 4 4 5 5 6 6 7 8 8 8 10 11 10 10 10 10 3 2 2 1 2 1 3 3 2 2 4 3 1 3 4 6 7 5 2 4 2 1 2 2 4 6 6 9
1 2 3 3 3 4 5 6 7 8 8 11 11 10 10 8 3 2 2 3 1 3 2 3 3 2 3 3 2 2 3 3 2 3 5 3 1 1 3 1 3 6 9 8 8
2 1 1 2 2 3 4 5 6 7 9 11 11 10 10 6 4 1 3 1 3 1 2 2 4 2 2 0 1 1 1 3 3 3 1 3 2 1 2 2 4 4 5 8 9
4 3 2 2 3 3 3 4 5 7 9 10 10 11 11 3 4 2 1 1 4 3 3 4 2 2 1 2 1 3 1 2 2 4 3 3 2 2 2 5 5 8 7 7 9
5 4 4 3 3 4 4 4 5 6 8 10 9 10 2 2 3 2 3 4 4 2 2 2 2 3 3 3 3 3 2 3 2 5 4 1 4 0 3 6 7 8 7 8 7
7 6 5 4 5 4 5 6 7 7 8 9 9 8 1 5 3 3 4 3 3 3 3 3 2 2 4 2 3 2 2 4 4 2 4 5 3 6 5 6 6 5 7 7 8
8 7 6 5 5 5 5 6 8 10 10 7 4 2 2 8 1 4 3 1 2 3 4 2 5 2 5 4 1 1 5 6 4 2 4 6 4 6 5 5 4 4 5 6 8
9 8 7 6 6 5 6 7 8 11 7 1 1 1 6 1 3 3 5 4 3 3 3 4 3 6 1 5 2 2 3 4 4 2 3 6 3 7 1 8 2 2 3 4 7
11 9 8 7 7 5 5 6 9 7 2 3 2 2 5 3 3 3 2 6 5 3 5 4 3 3 4 5 4 3 6 6 2 1 2 7 2 7 3 5 3 2 3 4 5
13 11 10 8 7 5 5 5 4 3 2 1 1 3 5 5 4 4 2 6 3 7 5 2 3 4 4 9 9 7 6 5 6 3 3 6 9 7 2 2 3 4 4 5 5
13 12 10 9 8 5 3 1 4 4 5 9 6 1 5 4 2 3 3 5 4 3 8 3 8 13 19 17 4 2 4 7 3 2 4 11 13 8 4 5 6 6 6 7 6
14 13 12 10 8 7 3 4 2 3 7 13 6 6 2 5 5 5 7 10 7 9 8 5 14 15 1 9 9 7 9 13 4 3 5 9 14 7 6 4 5 7 7 7 8
16 14 13 11 9 5 8 6 2 2 6 5 8 9 6 9 8 16 16 7 6 10 17 14 2 9 9 8 11 12 14 11 9 3 4 5 14 11 4 5 7 7 7 7 9
17 16 15 13 6 5 7 6 4 3 7 7 8 6 7 8 7 2 12 6 6 14 9 10 4 7 10 12 12 15 13 8 7 5 9 3 7 5 8 10 11 11 11 11 9
18 19 21 21 8 8 4 9 8 2 10 6 5 2 2 10 10 2 1 2 10 9 8 6 10 11 11 8 13 5 6 10 7 11 5 8 7 3 6 12 14 15 14 12 10
17 20 24 15 3 3 8 11 5 4 16 4 4 6 8 3 2 4 6 4 3 6 2 5 2 5 5 3 8 15 9 6 3 3 9 15 13 8 8 10 17 18 17 16 14
14 17 18 10 10 9 12 6 5 9 3 8 6 8 8 7 4 6 13 14 12 10 15 6 9 4 4 6 3 6 10 5 6 7 8 3 9 11 6 9 16 24 22 18 15
17 16 18 11 9 16 7 11 9 20 26 6 6 6 12 11 5 7 10 13 18 7 5 12 9 16 14 18 11 17 18 7 9 7 3 2 9 5 3 6 2 17 19 19 17
11 5 5 10 12 12 13 16 18 12 17 14 7 7 10 6 6 9 12 10 14 18 14 10 8 3 5 4 12 10 12 3 5 2 2 7 5 6 6 6 7 15 19 20 18
5 5 6 13 17 12 14 17 13 13 9 15 21 17 17 14 13 15 15 9 9 19 6 5 5 1 4 4 1 6 12 6 6 6 7 4 5 8 11 14 10 15 19 19 18
7 4 4 19 13 11 14 11 15 8 12 14 19 14 11 13 17 12 13 5 13 13 17 5 3 4 4 13 18 7 9 5 3 4 4 3 6 4 10 17 20 20 21 22 20
6 7 5 14 12 4 14 16 11 11 12 13 4 17 13 15 15 17 18 14 17 15 18 11 2 7 14 1 2 11 8 15 8 7 4 2 5 4 4 10 16 17 19 20 20
5 7 1 9 12 10 6 17 17 15 17 11 14 10 12 12 9 15 13 6 13 18 19 14 6 4 3 6 4 10 12 13 5 3 12 8 4 4 3 6 12 14 17 19 19
4 6 5 4 5 7 15 15 20 11 14 18 12 11 5 15 11 8 12 7 10 14 7 18 11 16 19 5 13 13 17 15 13 10 11 19 8 9 10 11 12 13 16 18 20
5 5 5 4 15 19 15 13 20 18 13 16 9 22 21 14 16 23 18 4 4 7 5 14 15 21 25 6 7 8 20 22 25 29 19 16 18 17 17 16 17 17 16 17 19
5 4 1 4 6 10 17 8 18 16 11 10 19 17 16 18 21 15 18 13 14 9 11 6 13 21 22 10 9 8 17 27 29 25 23 10 14 12 14 7 11 15 16 18 18
1 2 1 6 10 10 13 18 14 18 7 11 12 13 13 22 13 1 2 2 2 11 16 13 15 9 22 12 3 8 28 21 21 17 21 21 14 9 7 13 14 14 16 17 16
Wind_Direction
52 46 52 37 31 18 18 10 7 1 355 343 334 326 319 321 305 219 265 26 279 182 200 144 99 72 71 79 46 247 206 184 178 177 144 142 186 116 12 261 50 41 51 0 346
17 11 16 43 22 24 11 6 1 352 346 339 332 327 323 327 274 246 41 318 36 156 179 170 124 79 91 85 46 263 246 174 144 150 150 146 263 34 227 131 144 121 77 40 37
237 283 338 352 1 4 2 359 350 342 342 335 330 326 321 306 273 76 2 304 155 136 101 93 93 49 98 34 69 143 278 152 159 163 179 157 254 180 265 171 49 9 64 40 43
233 255 275 304 319 324 338 336 334 335 335 333 326 323 320 257 291 127 325 151 157 128 124 125 104 121 138 188 98 215 178 205 129 160 168 204 120 201 265 57 58 74 69 49 41
239 247 258 275 289 297 306 311 318 324 324 328 325 328 298 284 261 118 95 115 143 146 162 147 176 150 189 160 173 222 182 210 215 178 237 236 231 103 89 100 100 93 71 54 45
242 247 256 267 280 290 299 308 312 315 321 322 322 317 246 250 105 141 137 132 156 159 144 171 197 160 112 163 239 105 254 264 268 240 212 223 141 186 125 141 98 80 64 52 40
238 245 250 263 271 288 296 302 314 319 313 314 327 330 213 261 132 144 147 118 150 175 161 147 142 201 147 145 93 63 284 284 225 209 216 182 171 155 119 164 113 78 56 41 30
232 244 248 256 262 275 290 303 316 312 301 335 36 228 254 64 137 152 147 97 90 65 95 122 124 99 38 126 101 248 241 255 121 166 131 208 192 153 2 215 168 88 69 52 40
233 235 237 244 252 264 278 300 309 303 305 332 220 241 256 128 183 163 193 146 108 70 63 89 67 81 145 188 223 205 259 222 252 180 166 226 148 149 14 183 157 130 100 73 56
224 228 226 227 235 243 270 283 292 293 232 271 48 242 172 201 147 132 69 138 125 129 110 88 103 181 166 195 235 203 216 225 236 161 215 224 248 162 90 178 147 135 116 98 80
214 217 216 214 219 211 265 220 223 213 222 210 192 236 131 109 144 141 151 121 119 154 186 146 206 215 214 214 233 172 209 239 166 139 231 243 255 193 175 171 167 159 143 127 111
206 208 205 203 197 194 195 230 267 41 287 234 233 273 175 181 130 183 169 175 177 193 134 161 230 228 187 192 196 215 237 243 266 190 236 252 256 234 194 199 199 170 155 144 131
203 198 193 183 171 188 211 220 28 307 263 241 202 208 188 177 202 178 179 156 191 175 195 213 169 187 165 169 200 224 225 232 256 156 231 272 263 217 182 173 164 178 151 151 140
201 191 177 156 166 181 212 209 207 311 267 222 213 227 160 157 224 157 181 156 186 209 181 239 161 154 188 210 200 234 215 222 210 220 257 225 281 203 177 183 190 179 179 166 155
209 192 171 171 142 184 198 148 157 270 272 105 138 26 145 188 121 172 174 157 185 169 181 195 175 188 202 204 187 258 155 200 203 226 260 194 258 172 173 205 194 187 181 173 166
214 203 177 185 189 166 123 121 141 168 240 180 127 159 151 153 104 114 157 57 87 141 263 268 35 198 213 93 185 134 108 78 95 193 247 226 218 198 195 214 181 186 184 176 171
219 206 184 181 190 140 137 132 159 202 144 176 174 176 179 161 159 170 175 183 181 189 220 206 216 170 174 128 109 187 160 189 219 208 246 150 209 254 193 182 191 182 182 177 171
218 212 204 197 161 145 170 168 202 220 213 110 128 138 188 157 192 172 164 193 216 199 141 202 227 186 190 214 185 196 190 190 213 205 173 132 226 232 87 123 160 182 174 171 175
190 232 220 196 163 165 176 199 210 207 189 159 135 174 197 199 185 176 206 217 199 197 200 191 239 187 194 148 172 184 215 169 107 2 235 201 233 232 154 167 166 175 175 180 179
207 208 234 174 164 177 206 204 231 210 154 186 207 193 188 185 181 194 185 189 203 195 198 193 253 216 158 142 108 213 149 179 225 210 233 210 250 223 200 195 182 182 188 184 182
214 207 231 170 176 191 207 222 234 225 197 187 207 212 204 182 202 200 206 176 204 198 191 130 211 138 143 208 188 163 190 206 205 204 224 241 231 212 192 185 185 193 193 187 185
173 217 172 164 202 208 201 197 207 209 219 241 227 218 197 183 199 210 213 219 187 154 179 185 168 198 203 119 277 235 222 194 204 185 243 298 246 161 190 188 187 187 189 188 187
195 207 189 199 228 208 207 214 221 196 201 205 224 221 202 196 222 213 213 176 174 170 170 168 189 190 235 217 188 215 202 216 225 60 201 190 199 167 179 214 198 181 182 185 187
178 203 191 178 254 253 202 208 215 214 218 210 224 208 166 222 221 229 220 190 201 207 178 165 176 206 225 234 156 209 204 204 195 225 200 230 200 199 192 198 192 184 186 187 190
187 228 182 205 222 246 249 195 209 212 217 200 210 221 213 229 227 233 232 159 201 214 205 184 222 218 238 237 205 210 197 194 208 222 210 227 219 194 189 195 195 193 184 182 192
189 181 187 189 220 220 233 217 194 207 169 202 226 215 219 225 216 231 225 208 211 174 187 201 227 224 236 217 217 219 212 207 213 218 235 229 226 188 192 158 178 189 181 192 196
333 355 170 195 212 221 235 231 212 200 208 207 205 227 217 231 242 320 10 101 199 186 195 185 203 190 228 204 216 263 223 204 209 213 216 219 228 149 179 190 195 185 189 197 193